Charlevoix, MI

12:19 AM EST on February 07, 2016 (GMT -0500)
Charlevoix Municipal

Weather History for KCVX - April, 2013

Change the Weather History Date:

Thursday, April 11, 2013

  Actual Average Record
Temperature  
Mean Temperature 32 °F -  
Max Temperature 35 °F 43 °F 75 °F (2002)
Min Temperature 30 °F 31 °F 24 °F (2004)
Degree Days  
Heating Degree Days 32    
Moisture  
Dew Point 23 °F    
Average Humidity 70    
Maximum Humidity 89    
Minimum Humidity 48    
Precipitation  
Precipitation 0.00 in - - ()
Sea Level Pressure  
Sea Level Pressure 30.01 in    
Wind  
Wind Speed 14 mph (East)    
Max Wind Speed 24 mph    
Max Gust Speed 36 mph    
Visibility 8 miles    
Events Snow    
Averages and records for this station are not official NWS values.
T = Trace of Precipitation, MM = Missing Value Source: NWS Daily Summary

Daily Weather History Graph

Daily Weather History Graph

Search for Another Location

Airport or City:

Trip Planner

Search our weather history database for the weather conditions in past years. The results will help you decide how hot, cold, wet, or windy it might be!

Date:

Astronomy

Apr. 11, 2013 Rise Set
Actual Time 7:02 AM EDT 8:22 PM EDT
Civil Twilight 6:32 AM EDT 8:52 PM EDT
Nautical Twilight 5:55 AM EDT 9:29 PM EDT
Astronomical Twilight 5:16 AM EDT 10:09 PM EDT
Moon 7:29 AM EDT (4/11) 10:01 PM EDT (4/11)
Length of Visible Light 14h 20m
Length of Day
13h 19m
New Moon, 2% of the Moon is Illuminated
Apr 11
New Moon
Apr 18
First Quarter
Apr 25
Full
May 2
Last Quarter
May 9
New

Hourly Weather History & Observations

Time (EDT) Temp. Windchill Dew Point Humidity Pressure Visibility Wind Dir Wind Speed Gust Speed Precip Events Conditions
12:14 AM 34.0 °F 26.6 °F 28.6 °F 81% 30.12 in 10.0 mi NNE 9.2 mph - N/A   Clear
12:35 AM 34.2 °F 27.5 °F 24.8 °F 69% 30.10 in 10.0 mi NNE 8.1 mph - N/A   Clear
12:54 AM 34.2 °F 29.0 °F 24.3 °F 67% 30.10 in 10.0 mi NE 5.8 mph - N/A   Clear
1:14 AM 34.0 °F 29.8 °F 24.6 °F 69% 30.12 in 10.0 mi East 4.6 mph - N/A   Clear
1:35 AM 33.4 °F 27.3 °F 25.3 °F 72% 30.12 in 10.0 mi East 6.9 mph - N/A   Clear
1:54 AM 33.8 °F 25.8 °F 25.2 °F 71% 30.11 in 10.0 mi East 10.4 mph - N/A   Clear
2:14 AM 34.7 °F 26.4 °F 24.8 °F 67% 30.08 in 10.0 mi ENE 11.5 mph 18.4 mph N/A   Clear
2:35 AM 34.7 °F 25.9 °F 24.8 °F 67% 30.07 in 10.0 mi ENE 12.7 mph 19.6 mph N/A   Clear
2:54 AM 35.1 °F 25.2 °F 24.6 °F 66% 30.06 in 10.0 mi East 16.1 mph 21.9 mph N/A   Clear
3:14 AM 35.1 °F 24.8 °F 24.8 °F 66% 30.06 in 10.0 mi East 17.3 mph 23.0 mph N/A   Clear
3:34 AM 34.9 °F 25.3 °F 25.3 °F 68% 30.06 in 10.0 mi East 15.0 mph 24.2 mph N/A   Clear
3:54 AM 34.7 °F 25.9 °F 25.7 °F 70% 30.07 in 10.0 mi East 12.7 mph - N/A   Clear
4:15 AM 34.7 °F 25.1 °F 24.8 °F 67% 30.08 in 10.0 mi East 15.0 mph 21.9 mph N/A   Clear
4:34 AM 34.7 °F 26.4 °F 24.8 °F 67% 30.09 in 10.0 mi East 11.5 mph 18.4 mph N/A   Clear
4:55 AM 34.2 °F 25.2 °F 24.3 °F 67% 30.10 in 10.0 mi East 12.7 mph - N/A   Clear
5:14 AM 34.0 °F 25.0 °F 24.1 °F 67% 30.11 in 10.0 mi East 12.7 mph - N/A   Clear
5:34 AM 33.8 °F 24.8 °F 24.1 °F 68% 30.10 in 10.0 mi East 12.7 mph - N/A   Clear
5:54 AM 33.1 °F 23.9 °F 24.3 °F 70% 30.09 in 10.0 mi East 12.7 mph 18.4 mph N/A   Clear
6:14 AM 32.9 °F 22.4 °F 23.7 °F 69% 30.07 in 10.0 mi East 16.1 mph 24.2 mph N/A   Clear
6:34 AM 32.5 °F 21.2 °F 23.5 °F 69% 30.05 in 10.0 mi East 18.4 mph - N/A   Clear
6:54 AM 32.2 °F 22.3 °F 23.5 °F 70% 30.05 in 10.0 mi ENE 13.8 mph 23.0 mph N/A   Clear
7:14 AM 32.0 °F 20.8 °F 23.0 °F 69% 30.05 in 10.0 mi ENE 17.3 mph 24.2 mph N/A   Clear
7:34 AM 32.0 °F 20.8 °F 23.0 °F 69% 30.04 in 10.0 mi East 17.3 mph 26.5 mph N/A   Clear
7:54 AM 32.0 °F 21.6 °F 22.5 °F 68% 30.08 in 10.0 mi East 15.0 mph 20.7 mph N/A   Clear
8:14 AM 32.0 °F 21.6 °F 22.6 °F 68% 30.12 in 10.0 mi East 15.0 mph 23.0 mph N/A   Scattered Clouds
8:35 AM 32.0 °F 21.6 °F 22.8 °F 69% 30.12 in 10.0 mi East 15.0 mph 21.9 mph N/A   Mostly Cloudy
8:54 AM 32.0 °F 21.6 °F 22.3 °F 67% 30.12 in 10.0 mi East 15.0 mph 24.2 mph N/A   Mostly Cloudy
9:14 AM 32.0 °F 20.8 °F 22.1 °F 67% 30.09 in 10.0 mi East 17.3 mph 25.3 mph N/A   Overcast
9:35 AM 32.0 °F 19.8 °F 21.9 °F 66% 30.09 in 10.0 mi East 20.7 mph 26.5 mph N/A   Overcast
9:54 AM 32.0 °F 19.8 °F 21.9 °F 66% 30.05 in 10.0 mi East 20.7 mph 24.2 mph N/A   Overcast
10:14 AM 32.0 °F 20.1 °F 21.6 °F 65% 30.05 in 10.0 mi East 19.6 mph 25.3 mph N/A   Overcast
10:35 AM 32.0 °F 20.5 °F 21.9 °F 66% 30.05 in 10.0 mi East 18.4 mph 24.2 mph N/A   Overcast
10:54 AM 32.0 °F 20.5 °F 21.2 °F 64% 30.06 in 10.0 mi East 18.4 mph 23.0 mph N/A   Overcast
11:14 AM 32.2 °F 19.4 °F 20.8 °F 63% 30.06 in 10.0 mi East 23.0 mph 27.6 mph N/A   Overcast
11:35 AM 32.4 °F 21.7 °F 21.0 °F 63% 30.05 in 10.0 mi East 16.1 mph 26.5 mph N/A   Overcast
11:54 AM 32.4 °F 19.4 °F 21.0 °F 63% 30.03 in 10.0 mi East 24.2 mph 33.4 mph N/A   Overcast
12:14 PM 33.4 °F 22.7 °F 21.4 °F 61% 30.02 in 10.0 mi East 17.3 mph 24.2 mph N/A   Mostly Cloudy
12:34 PM 33.3 °F 20.9 °F 20.5 °F 59% 30.03 in 10.0 mi East 23.0 mph 29.9 mph N/A   Overcast
1:15 PM 33.8 °F 22.8 °F 21.0 °F 60% 30.00 in 10.0 mi East 18.4 mph 29.9 mph N/A   Overcast
1:34 PM 33.8 °F 23.5 °F 20.3 °F 58% 30.00 in 10.0 mi East 16.1 mph 28.8 mph N/A   Overcast
1:54 PM 34.2 °F 23.6 °F 19.2 °F 54% 30.00 in 10.0 mi East 17.3 mph 32.2 mph N/A   Overcast
2:15 PM 34.2 °F 23.0 °F 18.5 °F 53% 29.98 in 10.0 mi East 19.6 mph 25.3 mph N/A   Overcast
2:34 PM 34.2 °F 22.1 °F 16.7 °F 49% 29.98 in 10.0 mi East 23.0 mph 35.7 mph N/A   Overcast
2:54 PM 34.7 °F 23.4 °F 16.9 °F 48% 29.98 in 10.0 mi East 20.7 mph 31.1 mph N/A   Overcast
3:15 PM 33.6 °F 21.3 °F 18.0 °F 53% 29.97 in 10.0 mi East 23.0 mph 31.1 mph N/A   Overcast
3:34 PM 33.3 °F 21.5 °F 17.4 °F 52% 29.97 in 10.0 mi East 20.7 mph 33.4 mph N/A   Overcast
3:54 PM 32.5 °F 21.5 °F 19.8 °F 59% 29.98 in 5.0 mi East 17.3 mph 27.6 mph N/A Snow Light Snow
4:15 PM 32.0 °F 21.2 °F 20.8 °F 63% 29.97 in 7.0 mi East 16.1 mph 26.5 mph N/A Snow Light Snow
4:34 PM 32.0 °F 21.2 °F 21.9 °F 66% 29.97 in 10.0 mi East 16.1 mph 23.0 mph N/A   Overcast
4:54 PM 32.0 °F 20.8 °F 21.7 °F 66% 29.97 in 10.0 mi ESE 17.3 mph 25.3 mph N/A   Overcast
5:15 PM 32.0 °F 20.5 °F 21.0 °F 64% 29.98 in 10.0 mi East 18.4 mph 25.3 mph N/A   Light Drizzle
5:34 PM 32.0 °F 19.8 °F 19.9 °F 61% 29.97 in 10.0 mi East 20.7 mph 33.4 mph N/A   Overcast
5:55 PM 31.6 °F 20.0 °F 22.6 °F 69% 29.96 in 4.0 mi East 18.4 mph 25.3 mph N/A Snow Light Snow
6:14 PM 31.3 °F 19.5 °F 23.9 °F 74% 29.94 in 5.0 mi East 18.4 mph 26.5 mph N/A Snow Light Snow
6:34 PM 31.1 °F 19.3 °F 24.8 °F 77% 29.93 in 4.0 mi East 18.4 mph 24.2 mph N/A   Overcast
6:55 PM 30.6 °F 17.9 °F 25.0 °F 80% 29.94 in 10.0 mi East 20.7 mph 27.6 mph N/A   Overcast
7:14 PM 30.2 °F 18.9 °F 24.6 °F 80% 29.94 in 10.0 mi East 16.1 mph 27.6 mph N/A   Overcast
7:34 PM 30.4 °F 18.7 °F 25.5 °F 82% 29.92 in 7.0 mi East 17.3 mph 23.0 mph N/A Snow Light Snow
7:54 PM 30.2 °F 18.1 °F 26.1 °F 85% 29.90 in 2.5 mi East 18.4 mph 29.9 mph N/A Snow Light Snow
8:14 PM 30.0 °F 17.9 °F 26.6 °F 87% 29.90 in 2.0 mi East 18.4 mph 26.5 mph N/A Snow Light Snow
8:35 PM 30.0 °F 17.9 °F 26.6 °F 87% 29.89 in 3.0 mi East 18.4 mph 28.8 mph N/A Snow Light Snow
8:54 PM 30.2 °F 18.1 °F 27.0 °F 88% 29.88 in 3.0 mi East 18.4 mph 26.5 mph N/A Snow Light Snow
9:14 PM 30.2 °F 16.8 °F 27.3 °F 89% 29.86 in 3.0 mi East 23.0 mph 28.8 mph N/A Snow Light Snow
9:34 PM 30.6 °F 19.4 °F 27.1 °F 87% 29.88 in 5.0 mi East 16.1 mph 26.5 mph N/A Snow Light Snow
9:54 PM 30.6 °F 17.9 °F 27.3 °F 88% 29.86 in 3.0 mi East 20.7 mph 26.5 mph N/A Snow Light Snow
10:15 PM 30.7 °F 18.5 °F 27.1 °F 86% 29.87 in 2.5 mi East 19.6 mph 27.6 mph N/A Snow Light Snow
10:34 PM 30.2 °F 17.8 °F 27.1 °F 88% 29.88 in 2.5 mi East 19.6 mph 26.5 mph N/A Snow Light Snow
10:54 PM 30.2 °F 18.5 °F 27.0 °F 88% 29.88 in 3.0 mi East 17.3 mph 23.0 mph N/A Snow Light Snow
11:14 PM 30.2 °F 18.1 °F 27.1 °F 88% 29.87 in 3.0 mi East 18.4 mph 24.2 mph N/A Snow Light Snow
11:34 PM 30.2 °F 18.1 °F 27.3 °F 89% 29.85 in 4.0 mi East 18.4 mph - N/A Snow Light Snow
11:54 PM 30.0 °F 17.9 °F 27.1 °F 89% 29.83 in 5.0 mi East 18.4 mph 24.2 mph N/A Snow Light Snow